STARLINK-37157, 68394

Orbit data source: Space-Track

STARLINK-37157, 68394 is a payload satellite owned by SpaceX/Seattle (US) in SSO that was launched on Thu, 26 Mar 2026 UTC via an FALCON 9 launch vehicle from the Air Force Western Test Range (AFWTR). Payload-class satellites include a variety of spacecraft equipped with specific instruments for various scientific and technological missions. These include communications satellites like Starlink; space stations such as the ISS; scientific satellites like the Hubble; Earth observation satellites from companies like Planet Labs, Umbra, and HawkEye 360; GPS; miniature CubeSats for education and research; and military/defense satellites.

Loading next visibility...
Identifier
68394, 2026-063Q
Orbit
SSO
Country
Flag of USUS
Related business
Manufacturer
SpaceX/Seattle
Mission
Operational spacecraft
Bus & Motor
STARLINK V2MO, Unknown motor
Mass
575 kg wet, ~530 kg dry
Launch date (UTC)
2026-03-26 (3 months ago)
Launch vehicle
FALCON 9
Launch site
Air Force Western Test Range (AFWTR)
Object type
Payload
Rocket body
Debris
Shape & HBR
Unknown shape, 17.7 m
Radar Cross Section
Large (>1 m²)

Expand to show TLE details & history
Last TLE update: 18 hours ago

TLE from 18 hours ago
0 STARLINK-37157
1 68394U 26063Q   26165.35553926  .00028623  00000-0  88537-3 0  9990
2 68394  97.2849 307.6995 0000531  50.5748 309.5542 15.33452536 12714
Epoch: 2026-06-14T08:31Z
TLE epoch observation values (Epoch: 2026-06-14T08:31:58.592Z)
Latitude
0.00003°
Longitude
-82.9521°
Altitude
468.401 km
Speed
7.632 km/s
True Right ascension
20h 30m 47s
True Declination
0° 00' 00"
Sunlit
Object was in full shadow at epoch
Visualization orbit readout
Latitude
Unknown
Longitude
Unknown
Altitude
Unknown
Speed
Unknown
Apparent Right ascension
Unknown
Apparent Declination
Unknown
Sunlit
N/A
Visualization observer readout
Local Sidereal Time
13:00:31
Azimuth
Unknown
Elevation
Unknown
Doppler factor
Unknown
Orbital elements
Apogee altitude
462.827 km
Perigee altitude
462.1 km
Semi-major axis
6,840.601 km
Eccentricity
0.00005
Inclination
97.2849°
RAAN
307.6995°
Arg. of periapsis
50.5748°
True anomaly
309.54951°
Mean anomaly
309.5542°
Eccentric anomaly
309.55185°
Mean motion
3.83621 °/min
Orbital period
93.84 mins
BSTAR
0.00088537
Loading maneuver chart data...
Computing Atmospheric mass density...
Loading historical data...
Loading historical data...
Loading historical data...
Loading historical data...
Loading historical data...
Loading historical data...
Loading historical data...

Documentation

Showing up to 5 results
|